Location: Exeidioux
(45.6312°N, 1.6819°E)
Time: 19:22:22
(UTC+00:00)

Cosmos 1503 Rocket - Pass Details

Date: 03 March 2021
Orbit: 753 x 790 km, 74.0° (Epoch: 13 April)

Event Time Altitude Azimuth Distance (km) Brightness Sun altitude
Rises 18:28:55 0° 342° (NNW) 3,231 7.5 -8.8°
Reaches altitude 10° 18:31:22 10° 347° (NNW) 2,297 6.7 -9.2°
Maximum altitude 18:36:27 53° 64° (ENE) 926 4.1 -10.1°
Drops below altitude 10° 18:41:29 10° 141° (SE) 2,272 6.1 -11.0°
Sets 18:43:53 0° 146° (SSE) 3,192 6.9 -11.4°
